Weather History for KSAC - January, 2013

Change the Weather History Date:

Tuesday, January 1, 2013

  Actual Average Record
Temperature  
Mean Temperature 42 °F -  
Max Temperature 52 °F 52 °F 64 °F (1997)
Min Temperature 32 °F 38 °F 23 °F (1979)
Degree Days  
Heating Degree Days 23    
Cooling Degree Days 0    
Moisture  
Dew Point 31 °F    
Average Humidity 68    
Maximum Humidity 92    
Minimum Humidity 44    
Precipitation  
Precipitation 0.00 in 0.12 in 1.82 in (1997)
Month to date precipitation 0.00 0.12  
Year to date precipitation 0.00 0.12  
Since 1 July precipitation 11.29 6.74  
Sea Level Pressure  
Sea Level Pressure 30.27 in    
Wind  
Wind Speed 3 mph (NNW)    
Max Wind Speed 13 mph    
Max Gust Speed 16 mph    
Visibility 7 miles    
Events      
T = Trace of Precipitation, MM = Missing Value Source: NWS Daily Summary

Daily Weather History Graph

Daily Weather History Graph

Search for Another Location

Airport or City:

Trip Planner

Search our weather history database for the weather conditions in past years. The results will help you decide how hot, cold, wet, or windy it might be!

Date:

Astronomy

Jan. 01, 2013 Rise Set
Actual Time 7:23 AM PST 4:56 PM PST
Civil Twilight 6:53 AM PST 5:25 PM PST
Nautical Twilight 6:20 AM PST 5:58 PM PST
Astronomical Twilight 5:48 AM PST 6:31 PM PST
Moon 9:28 PM PST (1/1) 9:41 AM PST (1/1)
Length of Visible Light 10h 31m
Length of Day
9h 32m
Waning Gibbous, 82% of the Moon is Illuminated
Jan 1
Waning Gibbous
Jan 4
Last Quarter
Jan 11
New
Jan 18
First Quarter
Jan 26
Full

Hourly Weather History & Observations

Time (PST) Temp. Windchill Dew Point Humidity Pressure Visibility Wind Dir Wind Speed Gust Speed Precip Events Conditions
12:50 AM 33.8 °F - 30.2 °F 87% 30.26 in 2.0 mi Calm Calm - N/A   Clear
12:53 AM 33.1 °F - 30.0 °F 89% 30.26 in 2.0 mi Calm Calm - N/A   Clear
1:28 AM 32.0 °F 28.7 °F 30.2 °F 93% 30.25 in 1.2 mi ESE 3.5 mph - N/A   Clear
1:53 AM 33.1 °F - 30.9 °F 92% 30.26 in 1.8 mi Calm Calm - N/A   Clear
2:01 AM 33.8 °F 27.7 °F 30.2 °F 87% 30.27 in 2.5 mi North 6.9 mph - N/A   Clear
2:23 AM 33.8 °F 30.8 °F 30.2 °F 87% 30.28 in 3.0 mi North 3.5 mph - N/A   Scattered Clouds
2:53 AM 35.1 °F 31.0 °F 33.1 °F 92% 30.28 in 3.0 mi NNE 4.6 mph - N/A   Clear
3:53 AM 35.1 °F - 32.0 °F 89% 30.28 in 4.0 mi Calm Calm - N/A   Mostly Cloudy
4:53 AM 32.0 °F 27.5 °F 30.0 °F 92% 30.27 in 3.0 mi WNW 4.6 mph - N/A   Clear
5:14 AM 33.8 °F 29.6 °F 32.0 °F 93% 30.27 in 3.0 mi NW 4.6 mph - N/A   Scattered Clouds
5:18 AM 33.8 °F 30.8 °F 32.0 °F 93% 30.27 in 2.5 mi NW 3.5 mph - N/A   Mostly Cloudy
5:28 AM 33.8 °F 30.8 °F 32.0 °F 93% 30.28 in 2.5 mi NNW 3.5 mph - N/A   Scattered Clouds
5:39 AM 33.8 °F 30.8 °F 30.2 °F 87% 30.28 in 4.0 mi NW 3.5 mph - N/A   Partly Cloudy
5:53 AM 33.1 °F 27.7 °F 30.9 °F 92% 30.29 in 6.0 mi NW 5.8 mph - N/A   Clear
6:53 AM 34.0 °F 29.8 °F 30.9 °F 89% 30.28 in 10.0 mi NW 4.6 mph - N/A   Mostly Cloudy
7:06 AM 33.8 °F 28.6 °F 30.2 °F 87% 30.28 in 10.0 mi NNW 5.8 mph - N/A   Scattered Clouds
7:53 AM 33.1 °F 28.7 °F 30.0 °F 89% 30.28 in 10.0 mi NW 4.6 mph - N/A   Clear
8:53 AM 37.0 °F 34.5 °F 33.1 °F 86% 30.28 in 10.0 mi NW 3.5 mph - N/A   Clear
9:53 AM 39.9 °F 36.7 °F 33.1 °F 77% 30.29 in 10.0 mi WNW 4.6 mph - N/A   Clear
10:53 AM 44.1 °F 39.0 °F 33.1 °F 65% 30.31 in 10.0 mi NNW 9.2 mph - N/A   Clear
11:53 AM 48.0 °F - 32.0 °F 54% 30.29 in 10.0 mi North 11.5 mph - N/A   Clear
12:53 PM 48.9 °F - 33.1 °F 54% 30.27 in 10.0 mi NNW 6.9 mph - N/A   Clear
1:53 PM 51.1 °F - 32.0 °F 48% 30.26 in 10.0 mi North 8.1 mph - N/A   Clear
2:53 PM 52.0 °F - 30.0 °F 43% 30.25 in 10.0 mi North 6.9 mph - N/A   Clear
3:53 PM 51.1 °F - 30.9 °F 46% 30.24 in 10.0 mi NW 4.6 mph - N/A   Clear
4:53 PM 48.0 °F - 28.9 °F 48% 30.22 in 10.0 mi WNW 3.5 mph - N/A   Clear
5:53 PM 43.0 °F - 32.0 °F 65% 30.23 in 10.0 mi Calm Calm - N/A   Clear
6:53 PM 37.9 °F - 30.9 °F 76% 30.23 in 10.0 mi Calm Calm - N/A   Clear
7:53 PM 37.0 °F - 30.9 °F 79% 30.24 in 10.0 mi Calm Calm - N/A   Clear
8:53 PM 35.1 °F - 30.9 °F 85% 30.25 in 8.0 mi Calm Calm - N/A   Clear
9:53 PM 35.1 °F 32.2 °F 30.9 °F 85% 30.27 in 6.0 mi East 3.5 mph - N/A   Clear
10:53 PM 33.1 °F 30.0 °F 28.9 °F 85% 30.28 in 6.0 mi ESE 3.5 mph - N/A   Clear
11:53 PM 36.0 °F - 30.9 °F 82% 30.27 in 8.0 mi Calm Calm - N/A   Clear